sat.trackr.live / text

‹ back to catalog

STARLINK-34751

NORAD 65338 · 2025-189R

PAYLOAD ACTIVE UNKNOWN

§ Identity

Operator
Country
US
Launch date
2025-08-27
Launch site
AFETR
Launch vehicle
Mass (kg)
RCS (m²)

Purposes: comms

External: N2YO · Heavens-Above · Gunter

§ Orbital elements

Epoch: 2026-05-24T16:15:28.739808Z

Period
94.01 min
Inclination
53.1581°
Eccentricity
0.0001165
Mean motion
15.31709469 rev/d
Perigee alt
469.9 km
Apogee alt
471.5 km
Semi-major
6,848.8 km
B*
4.6960e-4
RAAN
213.5885°
Arg perigee
84.2771°
Mean anomaly
275.8363°
Rev number
4,274

§ Raw data

STARLINK-347511 65338U 25189R   26144.67741597  .00014239  00000+0  46960-3 0  99992 65338  53.1581 213.5885 0001165  84.2771 275.8363 15.31709469 42740

JSON: /api/v1/satellites/65338 · /tle

For live sub-satellite position, see the globe view (requires WebGL).

§ Visibility from observer

Set your observer location to see the next 7 days of passes ≥ 10°. The values pass through the URL so the page stays shareable.

No JS? Fill the form by hand. The geolocation button needs JavaScript.